Retour au catalogue

NUSAT-50

NANCY ROMAN

ActifScienceSSO
NORAD 60493·PAYLOAD·🇦🇷 Argentina

Lancé Aug 16, 2024 depuis Vandenberg Space Force Base

Loading…

Prochains Passages (prochaines 24 heures)

TLE

FraisSource: Space-Track

Époque: Sep 14, 2026, 11:34 UTC

1 60493U 24149AB  26257.48243741  .00006976  00000-0  23919-3 0  9992
2 60493  97.3732 338.1568 0002112 208.2294 151.8833 15.30492643115780

Suivez NUSAT-50 en temps réel avec AllMySat

Download on the App Store